Weather History for Prerov, Czech Republic

Change the Weather History Date:

Sunday, March 10, 2013

  Actual Average Record
Temperature  
Mean Temperature 40 °F -  
Max Temperature 46 °F - - ()
Min Temperature 35 °F - - ()
Degree Days  
Heating Degree Days 24    
Moisture  
Dew Point 38 °F    
Average Humidity 90    
Maximum Humidity 100    
Minimum Humidity 81    
Precipitation  
Precipitation 0.00 in - - ()
Sea Level Pressure  
Sea Level Pressure 29.52 in    
Wind  
Wind Speed 3 mph ()    
Max Wind Speed 8 mph    
Max Gust Speed -    
Visibility 2.1 miles    
Events Fog , Rain    
T = Trace of Precipitation, MM = Missing Value Source: Averaged Metar Reports

Daily Weather History Graph

Daily Weather History Graph

Search for Another Location

Airport:

Trip Planner

Search our weather history database for the weather conditions in past years. The results will help you decide how hot, cold, wet, or windy it might be!

Date:

Astronomy

Mar. 10, 2013 Rise Set
Actual Time 6:14 AM CET 5:47 PM CET
Civil Twilight 5:42 AM CET 6:19 PM CET
Nautical Twilight 5:05 AM CET 6:56 PM CET
Astronomical Twilight 4:28 AM CET 7:34 PM CET
Moon 5:09 AM CET (3/10) 4:33 PM CET (3/10)
Length of Visible Light 12h 36m
Length of Day
11h 33m
Waning Crescent, 2% of the Moon is Illuminated
Mar 10
Waning Crescent
Mar 11
New
Mar 19
First Quarter
Mar 27
Full
Apr 3
Last Quarter

Hourly Weather History & Observations

Time (CET) Temp. Windchill Dew Point Humidity Pressure Visibility Wind Dir Wind Speed Gust Speed Precip Events Conditions
12:00 AM 37.4 °F 31.4 °F 35.6 °F 93% 29.59 in 1.7 mi ENE 8.1 mph - N/A Rain Light Rain
1:00 AM 37.4 °F 32.8 °F 35.6 °F 93% 29.59 in 1.7 mi ENE 5.8 mph - N/A Rain Light Rain
1:10 AM 37.4 °F 32.8 °F 35.6 °F 93% 29.59 in - ENE 5.8 mph - N/A Rain Light Rain
2:00 AM 37.4 °F 34.9 °F 35.6 °F 93% 29.56 in 2.5 mi NE 3.5 mph - N/A   Overcast
3:00 AM 37.4 °F - 35.6 °F 93% 29.56 in 2.5 mi East 2.3 mph - N/A   Overcast
4:00 AM 35.6 °F 32.8 °F 35.6 °F 100% 29.56 in - East 3.5 mph - N/A   Overcast
4:50 AM 35.6 °F - 35.6 °F 100% 29.56 in 1.7 mi East 2.3 mph - N/A   Overcast
5:00 AM 35.6 °F 32.8 °F 33.8 °F 93% 29.56 in 1.7 mi East 3.5 mph - N/A   Overcast
6:00 AM 35.6 °F 32.8 °F 33.8 °F 93% 29.53 in 1.6 mi East 3.5 mph - N/A   Overcast
7:00 AM 35.6 °F - 33.8 °F 93% 29.53 in 1.7 mi Variable 1.2 mph - N/A   Overcast
7:41 AM 37.4 °F 34.9 °F 35.6 °F 93% 29.53 in 1.7 mi East 3.5 mph - N/A   Overcast
8:00 AM 37.4 °F - 35.6 °F 93% 29.53 in 1.7 mi Variable 2.3 mph - N/A   Overcast
9:00 AM 39.2 °F - 35.6 °F 87% 29.53 in 1.8 mi Calm Calm - N/A   Overcast
9:15 AM 39.2 °F - 35.6 °F 87% 29.53 in 1.9 mi Variable 1.2 mph - N/A   Overcast
10:00 AM 39.2 °F - 35.6 °F 87% 29.53 in 2.2 mi Calm Calm - N/A   Overcast
11:00 AM 41.0 °F - 37.4 °F 87% 29.53 in - Variable 2.3 mph - N/A   Overcast
11:10 AM 41.0 °F 39.0 °F 37.4 °F 87% 29.53 in - SSE 3.5 mph - N/A   Overcast
12:00 PM 42.8 °F - 39.2 °F 87% 29.53 in - Calm Calm - N/A   Overcast
12:49 PM 44.6 °F - 39.2 °F 81% 29.50 in - Calm Calm - N/A   Overcast
1:00 PM 44.6 °F - 39.2 °F 81% 29.50 in - Calm Calm - N/A   Overcast
2:00 PM 44.6 °F - 41.0 °F 87% 29.50 in 2.5 mi Variable 1.2 mph - N/A   Overcast
3:00 PM 46.4 °F - 41.0 °F 81% 29.50 in 2.5 mi Variable 2.3 mph - N/A   Overcast
4:00 PM 46.4 °F - 41.0 °F 81% 29.47 in - Variable 1.2 mph - N/A   Overcast
4:49 PM 46.4 °F - 41.0 °F 81% 29.47 in 2.8 mi Calm Calm - N/A   Overcast
5:00 PM 46.4 °F - 42.8 °F 87% 29.47 in 2.8 mi Calm Calm - N/A   Overcast
6:00 PM 46.4 °F - 42.8 °F 87% 29.47 in 2.8 mi Calm Calm - N/A   Overcast
7:00 PM 44.6 °F - 42.8 °F 93% 29.50 in 2.8 mi NNW 2.3 mph - N/A   Overcast
7:48 PM 44.6 °F - 42.8 °F 93% 29.50 in 2.8 mi North 2.3 mph - N/A   Overcast
8:00 PM 44.6 °F - 42.8 °F 93% 29.50 in 2.8 mi North 2.3 mph - N/A   Overcast
9:00 PM 44.6 °F - 41.0 °F 87% 29.47 in 2.5 mi ESE 2.3 mph - N/A   Overcast
10:00 PM 42.8 °F - 41.0 °F 93% 29.47 in 2.5 mi South 2.3 mph - N/A   Mist
10:38 PM 41.0 °F - 39.2 °F 93% 29.47 in 1.7 mi Calm Calm - N/A   Mist
11:00 PM 39.2 °F - 37.4 °F 93% 29.47 in 0.9 mi Calm Calm - N/A   Mist
11:21 PM 37.4 °F - 37.4 °F 100% 29.47 in 0.4 mi Variable 1.2 mph - N/A Fog Fog